Van Nuys, CA

1:39 AM PDT on June 25, 2018 (GMT -0700)
Van Nuys

Weather History for KVNY - August, 2015

Change the Weather History Date:

Saturday, August 15, 2015

  Actual Average Record
Temperature  
Mean Temperature 90 °F -  
Max Temperature 107 °F 89 °F 107 °F (2015)
Min Temperature 73 °F 63 °F 59 °F (2006)
Cooling Degree Days 24    
Growing Degree Days 40 (Base 50)    
Moisture  
Dew Point 45 °F    
Average Humidity 25    
Maximum Humidity 46    
Minimum Humidity 10    
Precipitation  
Precipitation 0.00 in - - ()
Sea Level Pressure  
Sea Level Pressure 29.85 in    
Wind  
Wind Speed 3 mph (West)    
Max Wind Speed 12 mph    
Max Gust Speed -    
Visibility 10 miles    
Events      
Averages and records for this station are not official NWS values.
T = Trace of Precipitation, MM = Missing Value Source: NWS Daily Summary

Daily Weather History Graph

Daily Weather History Graph

Search for Another Location

Airport or City:

Astronomy

Aug. 15, 2015 Rise Set
Actual Time 6:15 AM PDT 7:41 PM PDT
Civil Twilight 5:48 AM PDT 8:07 PM PDT
Nautical Twilight 5:16 AM PDT 8:39 PM PDT
Astronomical Twilight 4:43 AM PDT 9:12 PM PDT
Moon 7:14 AM PDT (8/15) 8:15 PM PDT (8/15)
Length of Visible Light 14h 19m
Length of Day
13h 26m
New Moon, 1% of the Moon is Illuminated
Aug 15
New Moon
Aug 22
First Quarter
Aug 29
Full
Sep 5
Last Quarter
Sep 12
New

Hourly Weather History & Observations

Time (PDT) Temp. Dew Point Humidity Pressure Visibility Wind Dir Wind Speed Gust Speed Precip Events Conditions
12:51 AM 81.0 °F 51.1 °F 35% 29.89 in 10.0 mi ESE 5.8 mph - N/A   Clear
1:51 AM 79.0 °F 55.9 °F 45% 29.87 in 10.0 mi Calm Calm - N/A   Clear
2:51 AM 77.0 °F 53.1 °F 43% 29.86 in 10.0 mi Calm Calm - N/A   Clear
3:51 AM 75.9 °F 51.1 °F 42% 29.87 in 10.0 mi WNW 3.5 mph - N/A   Clear
4:51 AM 75.0 °F 53.1 °F 46% 29.88 in 10.0 mi Calm Calm - N/A   Clear
5:51 AM 73.9 °F 51.1 °F 45% 29.88 in 10.0 mi Calm Calm - N/A   Clear
6:51 AM 73.9 °F 48.9 °F 41% 29.89 in 10.0 mi WNW 3.5 mph - N/A   Clear
7:51 AM 78.1 °F 52.0 °F 40% 29.89 in 10.0 mi Calm Calm - N/A   Clear
8:51 AM 84.0 °F 51.1 °F 32% 29.89 in 10.0 mi Calm Calm - N/A   Clear
9:51 AM 90.0 °F 48.0 °F 24% 29.89 in 10.0 mi Calm Calm - N/A   Clear
10:51 AM 96.1 °F 46.9 °F 19% 29.88 in 10.0 mi Calm Calm - N/A   Clear
11:51 AM 99.0 °F 48.9 °F 18% 29.88 in 10.0 mi Variable 4.6 mph - N/A   Clear
12:51 PM 102.0 °F 48.0 °F 16% 29.85 in 10.0 mi Variable 4.6 mph - N/A   Clear
1:51 PM 105.1 °F 41.0 °F 11% 29.84 in 10.0 mi Variable 4.6 mph - N/A   Clear
2:51 PM 106.0 °F 44.1 °F 12% 29.82 in 10.0 mi SE 9.2 mph - N/A   Clear
3:51 PM 105.1 °F 39.0 °F 10% 29.81 in 10.0 mi SSE 10.4 mph - N/A   Clear
4:51 PM 102.9 °F 39.0 °F 11% 29.80 in 10.0 mi WNW 11.5 mph - N/A   Clear
5:51 PM 100.9 °F 39.0 °F 12% 29.79 in 10.0 mi WNW 9.2 mph - N/A   Clear
6:51 PM 97.0 °F 39.0 °F 13% 29.79 in 10.0 mi WNW 8.1 mph - N/A   Clear
7:51 PM 93.0 °F 35.1 °F 13% 29.81 in 10.0 mi West 5.8 mph - N/A   Clear
8:51 PM 89.1 °F 28.9 °F 12% 29.82 in 10.0 mi West 4.6 mph - N/A   Clear
9:51 PM 87.1 °F 32.0 °F 14% 29.83 in 10.0 mi SW 3.5 mph - N/A   Clear
10:51 PM 84.9 °F 37.9 °F 19% 29.83 in 10.0 mi West 3.5 mph - N/A   Clear
11:51 PM 82.9 °F 43.0 °F 24% 29.85 in 10.0 mi Calm Calm - N/A   Clear